Regional Weather Roundup
Issued by NWS

Home | Current Version | Previous Version | Text Only | Print | Product List | Glossary On
Versions: 1 2 3 4 5 6 7 8 9 10 11 12 13 14 15 16 17 18 19 20 21 22 23 24 25 26 27 28 29 30 31 32 33 34 35 36 37 38 39 40 41 42 43 44 45 46 47 48 49 50
000
ASUS43 KMKX 291700
RWRWI

WISCONSIN REGIONAL WEATHER ROUNDUP
NATIONAL WEATHER SERVICE MILWAUKEE/SULLIVAN WI
1200 PM CDT SAT AUG 29 2015

NOTE: "FAIR" INDICATES FEW OR NO CLOUDS BELOW 12,000 FEET WITH NO
SIGNIFICANT WEATHER AND/OR OBSTRUCTIONS TO VISIBILITY.

WIZ001-002-006>008-014>016-023>028-291800-
NORTHWEST WISCONSIN

CITY           SKY/WX    TMP DP  RH WIND       PRES   REMARKS
SUPERIOR ARPT  CLOUDY    68  60  75 W7        30.04S
ASHLAND        PTSUNNY   72  61  68 SW9       30.04F
HAYWARD        SUNNY     70  58  65 MISG      30.07R
SIREN          SUNNY     69  58  68 SW5       30.06F
CUMBERLAND     PTSUNNY   63  59  88 CALM      30.08F
RICE LAKE      CLOUDY    64  59  82 CALM      30.09F
CHETEK         PTSUNNY  N/A N/A N/A N3        30.07S
LADYSMITH      PTSUNNY   66  60  82 CALM      30.09S
EAU CLAIRE     CLOUDY    63  58  83 CALM      30.07S
MENOMONIE      CLOUDY    65  60  83 CALM      30.08S
NEW RICHMOND   CLOUDY    62  59  90 CALM      30.08F
OSCEOLA        CLOUDY    63  63 100 S3        30.11S
$$

WIZ003>005-009-010-017-018-291800-
NORTH CENTRAL WISCONSIN

CITY           SKY/WX    TMP DP  RH WIND       PRES   REMARKS
MANITOWISH WTR SUNNY     69  58  69 S6        30.08S
ARBOR VITAE    SUNNY     72  62  70 SW7       30.08S
WOODRUFF       SUNNY     72  62  70 SW7       30.08S
RHINELANDER    PTSUNNY   68  59  73 SW8       30.09S
EAGLE RIVER    MOSUNNY   69  56  64 SW3       30.08S
LAND O LAKES   MOSUNNY   70  56  61 W3        30.08F
PHILLIPS       SUNNY     68  59  72 SW5       30.08S
TOMAHAWK       CLOUDY    63  58  82 CALM      30.10R
MEDFORD        CLOUDY    61  59  94 CALM      30.09S
MERRILL        CLOUDY    63  60  88 CALM      30.09S
$$

WIZ029-030-035-036-043>047-291800-
CENTRAL WISCONSIN

CITY           SKY/WX    TMP DP  RH WIND       PRES   REMARKS
WAUSAU         CLOUDY    64  59  83 CALM      30.07S
MOSINEE        CLOUDY    63  61  94 E3        30.09S
MARSHFIELD     CLOUDY    65  58  78 CALM      30.07S
STEVENS POINT  CLOUDY    61  58  91 E6        30.08F
WAUPACA        CLOUDY    65  64  94 E3        30.08S
WAUTOMA        NOT AVBL
WISC RAPIDS    NOT AVBL
CAMP DOUGLAS   CLOUDY    64  64 100 E5        30.05S
$$

WIZ011>013-019>022-031-037>040-048>050-291800-
NORTHEAST WISCONSIN

CITY           SKY/WX    TMP DP  RH WIND       PRES   REMARKS
ANTIGO         CLOUDY    63  59  87 SW5       30.09S
SHAWANO        CLOUDY    65  62  87 S5        30.08F
OCONTO         CLOUDY    62  62 100 S6        30.08F
STURGEON BAY   CLOUDY    64  59  82 S12       30.11S
GREEN BAY      CLOUDY    65  61  87 E3        30.08S FOG
MANITOWOC      NOT AVBL
APPLETON       CLOUDY    64  63  94 E3        30.06R
CLINTONVILLE   CLOUDY    63  61  94 SE6       30.07F
OSHKOSH        CLOUDY    64  60  87 SE5       30.06R
$$

WIZ032>034-041-042-053>061-291800-
SOUTHWEST WISCONSIN

CITY           SKY/WX    TMP DP  RH WIND       PRES   REMARKS
LA CROSSE      CLOUDY    68  61  78 VRB7      30.05S
SPARTA         CLOUDY    65  59  79 E5        30.06S
VIROQUA        PTSUNNY   65  64  94 E5        30.05S
BOSCOBEL       CLOUDY    69  64  84 VRB5      30.03S
PRAIRIE DU CHI CLOUDY    66  62  86 CALM      30.03S
PLATTEVILLE    CLOUDY    69  66  90 N3        30.02S
$$

WIZ056-057-062-063-064-067-068-291800-
SOUTH CENTRAL WISCONSIN

CITY           SKY/WX    TMP DP  RH WIND       PRES   REMARKS
REEDSBURG      CLOUDY    63  61  95 NE5       30.05S
BARABOO/DELLS  CLOUDY    63  61  94 NE5       30.05S
LONE ROCK      CLOUDY    67  62  84 E5        30.03F
MINERAL POINT  CLOUDY    68  66  94 N5        30.03S
MADISON        CLOUDY    65  62  90 S3        30.03S
MIDDLETON      CLOUDY    66  66  98 CALM      30.04S
WATERTOWN      CLOUDY    64  64 100 S5        30.04S
MONROE         CLOUDY    64  63  94 S5        30.03R FOG
JANESVILLE     NOT AVBL
$$

WIZ051-052-058>065-066-070>072-291800-
SOUTHEAST WISCONSIN

CITY           SKY/WX    TMP DP  RH WIND       PRES   REMARKS
MILWAUKEE      CLOUDY    63  61  93 SE5       30.05S
WAUKESHA       CLOUDY    61  61 100 SE5       30.06S FOG
MILWAUKEE/TIMM CLOUDY    63  61  94 SE5       30.06F FOG
RACINE         CLOUDY    64  60  87 SE6       30.06F
BURLINGTON     CLOUDY    62  60  96 SE5       30.04F
KENOSHA        PTSUNNY   65  63  93 SE8       30.04F FOG
FOND DU LAC    CLOUDY    66  62  87 SE6       30.06R
SHEBOYGAN      CLOUDY    64  62  93 S5        30.06F
WEST BEND      CLOUDY    61  59  94 SE5       30.06F FOG
JUNEAU         CLOUDY    63  62  96 SE8       30.05F
$$

LSZ147-162-291800-
LAKE SUPERIOR

STATION/POSITION TIME  TEMP    WIND        PRES    WAVE
                       AIR SEA DIR/SP/G            HT/PER
                 (UTC) (F)     (DEG/KT/KT) (MB)    (FT/S)
W MID LAKE BUOY  1550   56 54  240/ 12/ 14 1016.8R   2/ 4
DEVILS ISLAND    1600   59     220/ 13/ 16 1017.0R
PORT WING        1600   62     280/  8/  9 1017.3
SAXON HARBOR     1640   69     180/  2/  7 1016.9S
$$

LMZ867-665-643>646-291800-
LAKE MICHIGAN

STATION/POSITION TIME  TEMP    WIND        PRES    WAVE
                       AIR SEA DIR/SP/G            HT/PER
                 (UTC) (F)     (DEG/KT/KT) (MB)    (FT/S)
CHAMBERS ISLAND  1600   63     160/  2/ 12 1019.0R
S GREEN BAY BUOY 1600   60 62  170/  4/  4 1020.1R
N MID LAKE BUOY  1550   63 64  200/ 12/ 16 1018.2S   1/ 4
NORTHPORT PIER   1600   63     160/  7/ 11 1018.6R
SISTER BAY       1604   65     190/ 11/ 12   N/A
ALGOMA LAKESHORE 1614             CALM       N/A
SHEBOYGAN LAKESH 1600   56     190/  4/  5 1018.8R
PORT WASHINGTON  1610   58      CALM  /  2 1018.6S
ATWATER BUOY     1600   55 48   40/  4/  6 1019.3R
MILWAUKEE LAKESH 1600   57     150/  3/  3   N/A
S MID LAKE BUOY  1550   66 68  130/ 12/ 14 1017.6S   2/ 4
KENOSHA   LAKESH 1600   59     130/  1/  2 1017.3F
$$

TC  - TEMPERATURE IN CELSIUS
VSB - VISIBILITY IN STATUTE MILES
WCI - WIND CHILL INDEX
HX  - HEAT INDEX



USA.gov is the U.S. government's official web portal to all federal, state and local government web resources and services.